Wind_Speed
36 35 34 31 29 27 25 24 23 23 23 23 23 23 22 22 21 21 21 20 18 17 16 15 14 15 15 15 14 13 12 11 9 8 8 7 7 7 8 9 11 11 11 11 12 11 11 11 11 11 11 11 10 10 10 10 10 9 9 9 9 9 8
37 37 36 33 31 29 26 25 23 23 23 24 24 24 23 24 23 22 22 21 20 18 17 16 15 15 15 15 15 14 13 12 11 11 9 8 8 8 8 8 9 10 11 11 10 10 10 10 10 10 10 10 11 11 11 11 11 10 10 9 9 9 9
38 38 36 33 31 29 27 26 24 24 24 24 24 24 24 25 23 22 22 21 21 20 18 17 16 16 16 16 16 16 15 13 13 12 11 11 10 10 9 9 9 10 10 10 9 9 10 10 10 10 10 10 11 11 11 11 11 11 10 9 9 9 10
38 37 36 34 32 30 28 28 26 25 24 24 25 25 25 25 23 22 22 21 21 21 19 18 17 17 17 17 17 16 15 14 13 13 12 12 11 11 11 10 10 10 10 10 10 10 11 10 10 10 10 10 10 10 11 10 10 10 9 9 9 9 10
36 36 35 35 34 31 29 30 29 26 25 25 25 25 24 23 23 23 21 21 21 21 19 18 18 18 18 18 17 16 16 15 14 14 14 13 12 11 11 12 11 11 10 11 11 11 11 10 10 10 10 10 10 10 10 10 10 10 9 9 9 9 10
33 35 35 35 35 33 30 31 31 28 27 27 27 27 25 23 24 24 22 21 22 21 20 19 19 19 18 18 18 17 16 16 15 15 15 14 13 12 12 12 11 11 11 12 12 11 11 11 11 10 10 10 10 10 10 10 11 11 10 10 9 10 10
28 32 35 36 36 34 32 32 31 29 29 30 30 27 26 24 24 23 22 21 21 21 21 20 20 20 19 19 18 18 17 17 16 16 16 16 15 14 13 12 12 12 12 12 11 11 11 11 11 11 11 11 10 11 10 10 10 11 10 10 9 10 11
22 27 32 36 36 35 33 32 32 31 31 32 29 26 26 26 24 23 22 20 20 22 22 21 21 21 20 20 19 19 18 18 18 17 17 16 16 16 15 14 13 13 12 11 11 11 11 12 12 12 12 12 12 11 11 10 10 10 10 9 9 10 11
19 23 27 32 35 35 34 33 35 36 35 34 31 27 26 27 26 25 24 23 23 23 23 22 22 21 21 21 21 20 19 19 18 18 17 17 17 17 16 16 15 14 13 12 12 12 12 12 13 13 12 13 12 12 11 11 11 11 10 10 10 10 12
18 21 24 29 32 34 34 33 34 36 37 37 35 32 29 28 28 27 26 25 24 23 23 23 23 23 23 23 22 21 20 20 19 18 18 19 18 18 17 17 17 16 15 14 14 14 13 13 14 13 13 13 13 12 12 11 10 11 10 10 11 11 12
18 20 23 26 30 32 32 30 30 32 35 39 39 35 31 30 30 29 28 27 25 24 24 24 24 25 25 24 23 23 22 21 20 20 20 19 19 18 18 18 18 17 16 15 16 15 14 14 14 14 14 14 14 14 13 12 11 10 10 10 11 11 11
18 19 20 22 26 30 29 29 29 30 33 38 40 37 34 32 31 29 28 29 29 27 27 26 26 26 25 24 24 25 24 23 22 21 21 21 20 18 18 18 18 18 17 16 17 17 16 16 15 14 15 15 15 15 15 14 13 11 10 10 10 10 11
18 18 19 20 23 26 27 28 29 30 32 36 38 36 34 34 33 30 29 30 31 31 30 29 28 27 27 25 25 26 26 25 24 23 22 22 22 20 19 19 19 19 19 18 18 17 17 17 16 15 15 16 16 16 16 16 15 13 12 11 11 10 10
19 18 18 18 20 22 24 26 28 29 31 35 35 32 30 32 33 31 31 32 32 33 33 32 31 30 29 28 27 28 27 27 27 26 25 24 23 23 22 21 20 21 21 20 19 18 18 18 18 17 16 16 16 16 17 17 17 16 13 12 12 11 11
22 20 18 18 18 19 22 25 26 27 29 33 35 32 31 32 31 31 34 35 34 33 32 33 33 34 33 31 30 29 29 29 29 29 28 26 25 24 23 23 22 22 22 22 20 19 18 18 18 18 17 17 17 17 17 17 18 16 15 14 14 12 11
20 22 21 20 19 19 20 21 22 24 26 29 32 34 34 34 32 31 34 36 36 34 32 32 31 32 33 34 34 33 33 32 31 31 30 29 28 27 25 25 24 24 23 23 22 21 20 19 18 18 18 18 17 17 17 17 18 18 16 15 15 13 12
18 20 21 20 19 18 18 18 19 22 25 27 30 33 35 35 33 32 32 34 35 36 36 34 32 31 32 34 36 38 38 37 35 33 33 32 31 30 29 27 26 26 25 24 24 23 22 21 19 19 19 18 18 18 17 18 19 19 17 16 16 16 15
19 19 18 18 18 18 18 18 19 20 22 24 26 27 30 32 32 32 31 31 32 33 35 35 33 32 33 33 34 36 39 40 39 37 36 34 33 32 31 30 29 29 27 26 25 24 24 23 21 20 19 19 19 18 18 19 21 21 19 17 18 18 17
20 19 18 18 19 19 19 19 20 20 21 22 22 23 26 28 29 29 28 28 28 28 30 33 33 34 36 35 34 34 36 39 40 40 38 37 36 35 33 32 32 31 30 28 27 27 26 24 23 22 21 21 20 20 21 22 22 22 22 20 20 20 19
21 19 19 19 19 19 19 19 20 21 22 22 23 23 24 25 25 25 25 25 25 25 27 30 32 34 36 36 36 37 37 37 39 40 39 39 40 39 36 34 33 33 32 31 30 29 27 25 24 24 23 22 21 22 25 25 23 23 23 21 21 22 21
21 20 20 20 19 19 19 20 20 21 22 22 23 23 24 24 24 24 24 25 25 24 24 25 26 29 30 31 32 33 35 35 36 38 40 42 42 41 39 38 36 35 34 33 32 29 27 27 26 26 26 25 25 27 28 27 25 24 23 22 22 23 23
20 21 21 20 20 21 21 20 21 22 22 22 24 25 25 25 25 25 25 25 25 24 24 23 24 25 25 24 25 27 28 29 29 31 35 38 39 40 40 40 39 38 36 34 33 31 30 30 30 30 30 29 29 30 28 26 25 26 24 23 22 23 23
18 18 19 20 20 20 19 19 20 20 20 22 22 22 22 23 24 25 25 25 24 23 23 23 23 23 23 22 22 24 24 24 24 26 29 31 34 37 38 38 39 40 38 36 34 33 32 34 35 34 33 31 31 30 27 25 26 26 25 24 23 23 23
16 16 17 17 17 17 17 17 17 17 17 18 17 16 17 17 18 19 21 21 21 21 21 20 20 20 19 19 20 21 21 21 22 24 26 26 28 31 33 35 36 37 36 36 36 36 36 36 37 35 34 33 31 29 27 26 26 25 25 24 23 22 24
13 14 15 15 14 15 16 14 14 14 14 14 14 14 15 15 15 15 16 16 17 17 17 17 17 17 16 16 17 17 18 18 19 21 22 22 23 25 27 28 30 31 31 33 35 37 37 37 37 37 36 34 31 28 27 28 28 26 25 25 25 25 25
12 13 14 15 15 14 14 14 13 13 13 13 13 14 14 14 14 15 15 15 16 16 16 16 15 15 15 15 16 16 16 16 15 16 18 19 19 21 22 23 24 25 27 29 30 32 34 35 35 36 37 35 33 30 29 29 31 29 26 25 25 26 27
15 15 15 15 14 12 13 13 13 13 12 13 13 13 13 12 13 13 14 14 15 15 16 16 14 14 14 14 15 15 15 15 14 14 15 16 17 18 20 21 22 23 25 26 26 26 26 26 26 28 32 34 33 32 33 32 32 31 29 28 26 26 27
15 16 14 14 13 13 13 12 12 13 13 12 12 12 11 11 12 12 12 12 13 13 14 14 13 13 13 13 13 13 14 15 15 15 15 15 15 16 18 19 21 22 23 24 25 25 23 21 19 21 26 29 30 32 34 35 34 31 29 29 29 28 28
13 14 13 13 13 13 13 12 12 13 13 12 12 11 10 10 10 10 10 10 10 11 11 11 11 10 11 11 10 10 10 11 12 14 14 14 14 15 16 18 20 21 21 22 24 26 24 22 20 19 20 23 25 27 28 31 36 36 32 30 30 30 29
10 11 12 12 12 12 12 12 12 13 13 13 13 12 12 11 10 10 9 8 8 8 8 8 7 7 8 8 8 8 9 9 9 11 13 14 15 14 15 17 18 19 20 20 21 21 20 20 23 23 20 16 17 22 26 27 31 35 34 33 33 34 32
7 8 9 10 11 11 12 12 12 13 13 13 13 13 13 12 12 12 11 9 9 8 7 7 6 6 6 6 6 7 8 8 9 10 11 12 13 13 14 14 14 15 17 17 19 18 16 17 21 24 24 19 15 19 26 26 25 28 31 33 34 36 37
8 7 8 9 10 10 11 12 13 13 13 12 12 12 12 12 12 12 12 11 11 10 9 8 8 7 7 7 7 7 7 7 8 8 8 9 9 9 11 11 12 13 14 14 15 15 14 14 15 18 23 26 24 23 25 24 21 23 27 29 29 30 32
12 11 10 11 11 11 12 13 14 15 15 14 13 13 12 12 12 12 12 12 12 12 12 11 10 10 10 9 8 8 8 8 8 7 7 7 7 8 8 8 9 10 11 10 11 12 12 13 15 16 20 25 27 27 26 25 22 22 23 25 26 26 25
16 15 14 14 14 14 14 14 15 16 16 15 15 14 14 13 13 13 14 14 14 14 14 13 13 12 12 12 11 11 11 10 10 9 8 8 8 8 8 8 7 7 7 7 7 8 9 10 12 13 15 16 18 21 24 25 25 24 24 24 26 27 27
15 14 14 13 14 16 16 17 17 17 16 16 16 16 16 16 15 15 15 15 15 15 15 15 15 15 14 14 14 13 13 13 12 12 12 12 11 10 10 9 9 8 8 8 7 7 8 8 8 9 9 9 10 12 14 15 17 18 18 18 19 21 23
15 15 15 15 15 17 18 19 19 18 18 17 17 17 17 17 17 17 16 16 16 16 15 16 16 16 16 16 16 15 15 15 15 15 14 14 14 13 13 12 12 11 11 10 10 10 10 10 10 10 9 9 10 10 10 10 11 12 12 12 13 14 15
16 16 17 17 18 19 20 21 21 21 20 19 19 18 18 18 18 18 17 17 16 16 16 16 16 17 17 17 17 18 18 18 18 18 18 17 17 16 16 15 15 15 14 14 13 13 13 13 13 13 13 13 13 13 12 13 13 13 13 14 14 14 14
17 17 17 19 21 21 21 22 23 23 23 22 21 20 20 20 20 19 18 18 17 17 16 16 17 17 17 17 17 18 18 19 19 19 20 20 20 19 19 18 18 18 17 17 17 17 17 17 17 17 16 16 16 16 16 16 17 17 17 17 17 17 18
Wind_Direction
193 198 201 198 197 198 199 199 200 202 202 201 201 203 205 205 208 209 207 205 204 205 205 204 205 206 208 211 211 211 207 206 211 211 205 202 199 200 200 198 198 199 196 194 197 200 203 207 210 211 213 213 211 208 204 200 198 199 201 201 202 204 204
196 200 203 203 201 200 200 202 203 203 204 204 203 203 205 206 208 210 209 207 206 206 206 206 207 208 209 211 213 214 211 206 207 211 213 209 203 203 209 210 208 203 201 203 202 200 204 209 212 214 216 217 217 216 213 207 203 202 204 204 203 206 209
197 199 201 203 206 206 204 204 206 206 206 206 204 205 208 207 207 210 209 209 209 207 206 207 210 212 211 211 213 215 216 212 208 210 214 214 209 205 207 214 219 214 208 209 208 204 205 207 211 215 214 216 218 219 219 216 214 210 207 208 206 209 214
196 197 198 200 205 209 209 207 208 208 207 208 207 207 209 206 205 208 208 209 210 209 208 209 211 215 215 214 215 217 219 218 215 213 216 220 218 212 210 211 217 222 219 215 211 211 211 206 207 213 214 215 218 220 223 222 222 222 218 214 214 216 219
196 197 198 200 202 207 212 211 208 207 206 208 210 208 204 202 205 208 207 207 209 208 208 209 212 216 218 217 217 219 221 222 221 217 219 224 226 223 221 218 217 221 224 222 217 215 215 210 210 213 214 216 219 222 227 227 228 231 229 223 223 223 223
199 200 201 203 202 204 213 215 209 206 205 206 211 210 202 200 206 207 207 207 207 205 205 208 211 215 218 218 219 220 221 223 224 222 222 225 227 228 229 229 228 226 226 226 223 219 218 217 214 214 215 218 221 225 229 231 233 236 235 231 231 231 230
203 203 203 204 203 203 210 217 213 210 209 208 209 207 200 199 203 204 204 206 207 205 204 207 210 213 216 217 219 221 222 224 225 224 225 226 228 229 231 233 235 237 236 232 229 226 225 224 220 218 218 220 223 227 230 232 237 239 236 235 239 241 239
196 201 203 204 205 206 209 214 217 216 215 214 213 207 199 198 200 200 200 201 205 206 204 207 210 212 215 217 219 221 222 225 226 226 227 228 229 230 232 234 235 239 242 240 239 237 234 232 229 225 224 223 225 230 233 234 238 240 237 241 245 247 246
187 193 198 202 206 210 212 215 218 217 213 213 218 217 206 201 202 204 203 201 204 205 203 205 209 211 214 217 220 221 222 225 226 226 228 229 230 231 232 235 236 237 240 242 243 242 239 238 237 233 230 229 228 230 233 235 239 242 241 243 244 243 246
186 187 192 199 205 211 214 217 218 216 212 211 216 219 214 206 204 207 208 208 210 208 205 207 211 214 215 216 218 221 223 225 226 226 228 230 230 230 232 235 237 237 236 237 241 243 242 241 242 240 237 235 233 232 233 235 238 243 243 244 245 243 245
185 186 190 198 204 208 212 214 213 214 214 212 211 213 215 210 207 209 211 212 214 214 211 212 217 220 220 218 219 221 222 224 226 227 230 231 231 230 231 234 236 238 236 234 238 243 245 244 243 244 242 241 240 236 233 233 234 238 242 245 248 246 244
178 183 188 195 200 205 210 211 211 211 211 210 209 210 214 216 215 216 216 215 217 218 217 217 221 224 225 223 223 223 224 225 227 228 229 232 233 231 231 233 235 238 239 237 236 240 245 246 244 244 244 243 243 241 238 236 234 234 237 241 246 247 247
176 180 184 190 197 203 207 209 210 210 206 207 211 211 211 215 219 221 220 218 220 223 223 221 222 226 227 228 227 227 227 228 229 230 229 230 232 232 232 232 234 236 237 239 239 239 242 246 245 243 243 244 244 243 242 240 239 238 236 239 244 248 250
178 178 180 187 196 202 207 207 209 209 205 206 212 211 207 211 218 223 225 225 227 229 229 227 226 227 228 229 230 231 230 230 231 233 233 231 230 231 232 232 234 236 238 240 241 241 241 244 247 245 243 244 244 244 243 243 243 241 239 240 243 246 249
182 183 183 187 193 198 204 207 209 211 209 209 212 211 207 207 210 215 222 227 230 232 233 232 231 231 232 232 233 233 233 232 232 233 234 234 233 232 231 233 234 235 238 240 242 242 242 241 245 248 247 245 245 246 246 246 246 243 241 241 240 239 245
182 189 193 195 197 199 202 204 206 208 208 210 212 212 211 211 211 214 220 226 231 235 236 235 235 237 238 237 236 236 235 234 234 233 234 235 235 234 232 232 234 235 237 239 239 240 242 241 242 246 249 248 247 247 248 250 251 247 242 243 244 242 244
185 192 195 198 202 204 204 203 203 204 204 208 211 212 213 216 220 224 227 229 234 237 238 236 237 240 242 242 240 239 237 236 234 233 234 234 235 237 235 234 234 234 236 238 239 239 240 241 240 242 247 250 249 248 248 249 252 250 243 242 246 245 244
198 197 196 198 202 204 204 203 204 205 207 209 211 213 215 218 222 226 229 231 233 236 237 236 235 237 239 242 244 245 244 243 238 234 233 234 235 236 237 237 236 236 236 237 239 240 240 242 243 243 244 247 249 250 249 246 248 249 245 240 243 245 244
208 202 198 199 203 205 206 205 206 208 211 213 215 216 218 219 222 224 226 228 228 230 232 234 234 234 235 238 242 247 250 251 247 240 236 236 236 235 236 237 238 239 239 238 238 240 241 242 244 245 245 245 247 248 248 245 245 247 246 242 242 244 244
211 204 202 203 204 206 208 208 211 211 213 216 218 219 221 220 219 220 223 225 225 225 229 232 234 236 238 241 245 248 250 252 251 246 241 239 238 236 235 236 236 237 239 239 239 240 242 243 243 243 243 243 244 245 245 246 247 248 249 247 245 246 244
210 203 204 206 204 206 209 210 214 216 216 217 219 221 223 223 221 222 225 227 226 226 229 231 233 236 239 241 244 247 247 248 250 250 247 243 240 238 237 237 236 236 235 237 239 240 242 246 246 244 242 239 237 236 237 239 242 245 248 250 249 248 246
207 202 203 204 203 206 210 212 216 218 219 221 222 223 225 227 226 226 227 228 228 229 231 231 231 234 237 236 237 240 242 245 249 252 249 245 243 241 240 239 238 237 235 234 235 235 236 241 244 244 244 242 239 238 238 238 239 242 245 247 248 248 248
204 200 199 202 205 207 209 211 217 219 219 222 224 225 227 229 230 229 228 229 228 228 229 230 231 234 236 235 236 239 241 243 246 248 246 242 242 242 241 239 239 238 236 234 234 233 233 236 239 240 242 244 245 247 249 245 244 245 245 245 247 248 250
201 198 198 200 201 201 201 204 211 214 215 217 219 220 221 223 225 226 226 227 226 225 227 230 232 233 235 236 238 241 243 243 244 245 243 240 240 241 241 240 240 241 240 237 235 235 236 238 242 243 242 241 243 247 249 247 248 250 247 246 248 249 250
199 194 194 191 187 189 194 197 202 205 205 207 209 210 211 211 211 213 215 217 219 221 225 231 233 232 231 231 233 237 242 244 244 244 243 239 237 239 240 239 239 243 245 242 240 242 244 245 247 247 245 241 241 245 247 246 248 249 247 248 249 249 250
190 180 181 186 185 185 190 196 202 205 205 206 207 208 208 207 209 210 211 214 218 222 228 233 237 237 234 231 231 233 237 240 240 241 242 240 236 236 238 238 237 239 243 245 246 249 251 251 251 250 247 246 247 248 248 248 246 244 245 250 252 250 250
184 179 180 189 191 190 195 202 207 210 211 212 213 214 214 214 216 218 217 218 222 225 229 235 239 241 239 237 237 236 236 237 239 238 239 239 237 236 237 237 236 236 239 241 243 246 249 251 250 248 247 249 250 249 248 247 245 241 241 246 252 253 252
188 189 188 195 200 200 200 202 206 207 205 203 204 207 212 214 218 221 220 221 224 227 231 236 239 239 239 240 242 240 239 239 239 238 238 239 240 240 238 235 235 237 240 242 242 244 244 242 240 241 243 246 248 246 242 241 241 240 239 241 246 250 250
185 186 185 190 196 199 197 195 196 195 189 185 186 188 193 201 208 213 218 223 225 226 229 232 234 235 237 240 242 243 245 244 240 238 239 242 243 242 240 239 239 240 243 246 246 246 243 236 231 230 232 240 246 245 242 240 241 241 239 238 243 248 249
175 183 186 187 189 193 195 194 193 189 182 180 181 179 179 186 191 194 202 211 216 219 220 221 224 229 234 237 238 238 241 241 237 237 243 247 248 245 243 243 242 241 242 244 246 247 244 235 230 224 220 230 247 245 240 239 238 236 237 240 244 248 249
177 186 189 190 192 194 198 200 199 196 190 187 187 185 183 185 189 190 194 200 207 211 212 212 213 218 225 235 237 235 234 234 232 234 240 245 248 248 247 247 246 243 241 241 244 248 247 239 234 226 219 222 236 241 240 240 236 233 237 241 243 245 247
185 182 181 190 195 194 198 203 205 205 204 202 202 201 198 199 201 201 202 205 209 213 214 214 213 212 215 223 229 229 229 230 231 232 235 237 241 242 243 245 245 243 243 244 248 252 251 247 243 234 224 224 230 238 242 243 239 235 236 238 240 246 248
190 187 189 195 199 198 200 204 208 210 211 213 215 216 216 218 219 219 217 217 219 222 225 225 224 223 222 222 224 225 225 226 229 232 237 242 243 239 236 236 234 234 236 241 248 253 254 250 247 240 232 228 231 237 241 243 242 242 242 241 243 248 249
203 198 199 199 201 206 210 212 214 217 219 221 223 226 227 229 231 232 232 232 233 233 235 237 238 237 235 234 232 231 230 229 229 229 230 236 241 238 235 233 231 229 229 229 234 241 247 249 248 245 240 233 230 235 241 243 245 248 249 247 245 245 246
217 215 217 216 213 214 217 221 223 225 229 231 232 234 236 237 238 240 241 243 244 244 245 246 247 247 247 246 245 244 242 241 239 236 233 233 235 235 235 234 233 232 230 228 227 229 233 239 242 243 243 237 229 232 236 237 238 241 244 245 246 246 246
221 219 218 221 223 221 222 224 227 228 231 234 236 239 240 241 242 243 245 247 249 251 252 253 254 254 253 253 253 254 253 252 251 250 246 243 241 239 238 238 236 236 236 235 234 233 233 235 236 235 233 233 234 235 233 231 233 236 237 239 242 245 247
219 217 215 217 221 223 224 225 228 231 232 234 236 238 240 241 243 244 245 248 250 253 255 258 260 260 259 258 257 257 259 259 259 258 257 255 253 250 247 245 243 241 241 241 242 241 240 238 239 239 236 235 237 239 238 238 240 243 244 243 243 244 246
220 218 216 217 221 225 228 229 232 235 237 236 238 240 241 242 243 244 245 247 250 253 256 259 262 265 265 265 264 262 262 262 262 262 262 261 260 259 257 254 252 249 248 247 247 247 247 246 246 245 244 242 242 243 243 243 243 245 247 248 249 249 250
Height
3180 3183 3187 3190 3193 3196 3198 3200 3203 3204 3206 3208 3210 3212 3214 3216 3217 3218 3219 3221 3222 3223 3225 3226 3227 3228 3229 3230 3231 3231 3232 3233 3233 3234 3235 3236 3236 3237 3238 3239 3240 3241 3241 3242 3243 3244 3245 3246 3247 3248 3249 3249 3250 3250 3251 3252 3252 3253 3254 3254 3255 3256 3256
3178 3181 3185 3188 3191 3194 3197 3199 3201 3203 3205 3207 3209 3211 3212 3214 3216 3217 3218 3220 3221 3222 3224 3225 3227 3228 3229 3230 3231 3231 3232 3233 3234 3234 3235 3236 3237 3237 3238 3239 3240 3241 3241 3241 3242 3244 3245 3246 3247 3247 3248 3249 3250 3250 3251 3251 3252 3252 3253 3254 3255 3255 3256
3175 3179 3183 3186 3189 3192 3195 3198 3200 3202 3204 3206 3207 3209 3211 3212 3215 3216 3218 3219 3221 3222 3223 3224 3226 3227 3228 3229 3230 3231 3232 3233 3234 3235 3235 3236 3236 3237 3237 3239 3239 3240 3241 3241 3242 3243 3244 3245 3246 3247 3248 3248 3249 3250 3250 3251 3251 3252 3253 3253 3254 3255 3255
3174 3178 3182 3185 3188 3191 3194 3196 3199 3201 3203 3204 3206 3208 3210 3211 3213 3215 3217 3218 3220 3221 3222 3224 3225 3226 3227 3229 3229 3230 3231 3233 3234 3235 3235 3236 3236 3236 3237 3238 3239 3240 3240 3241 3242 3243 3243 3244 3245 3246 3247 3248 3249 3249 3250 3251 3251 3252 3253 3253 3254 3254 3255
3173 3177 3180 3183 3186 3189 3193 3195 3197 3199 3202 3203 3204 3206 3208 3210 3212 3214 3215 3217 3219 3220 3222 3223 3224 3225 3227 3228 3229 3230 3231 3232 3233 3234 3235 3236 3236 3237 3237 3237 3238 3239 3240 3241 3242 3242 3243 3244 3245 3246 3246 3247 3248 3249 3249 3250 3251 3252 3252 3253 3253 3254 3254
3172 3175 3179 3181 3185 3188 3191 3193 3195 3198 3200 3202 3203 3204 3206 3208 3211 3213 3214 3216 3218 3219 3221 3222 3223 3225 3226 3227 3228 3229 3230 3231 3232 3233 3234 3235 3236 3237 3237 3237 3237 3238 3240 3240 3241 3242 3243 3244 3244 3245 3246 3247 3247 3248 3249 3249 3250 3251 3252 3252 3252 3253 3253
3171 3174 3177 3180 3184 3187 3190 3192 3195 3197 3198 3199 3200 3202 3204 3207 3209 3211 3213 3215 3216 3218 3220 3221 3222 3224 3225 3226 3227 3228 3229 3230 3231 3233 3234 3234 3235 3236 3237 3237 3238 3238 3239 3240 3241 3242 3243 3243 3244 3245 3245 3246 3247 3247 3248 3248 3249 3250 3251 3251 3252 3252 3253
3170 3173 3176 3179 3183 3186 3189 3192 3194 3196 3197 3198 3198 3199 3203 3205 3207 3209 3210 3213 3215 3216 3218 3220 3221 3223 3224 3225 3226 3227 3228 3230 3230 3232 3233 3234 3235 3236 3236 3237 3238 3238 3239 3240 3240 3241 3242 3243 3244 3244 3245 3245 3246 3246 3247 3248 3248 3249 3250 3250 3251 3252 3252
3169 3172 3175 3179 3182 3184 3187 3190 3191 3192 3195 3196 3197 3199 3201 3204 3206 3207 3208 3211 3213 3215 3217 3219 3220 3221 3222 3224 3225 3226 3227 3228 3229 3231 3232 3233 3234 3235 3236 3236 3237 3238 3239 3239 3240 3240 3241 3242 3243 3244 3244 3245 3245 3246 3246 3247 3248 3248 3249 3249 3250 3251 3251
3169 3172 3175 3178 3180 3182 3184 3186 3188 3190 3193 3194 3195 3198 3201 3203 3205 3206 3208 3210 3212 3214 3216 3217 3218 3219 3220 3222 3224 3225 3226 3227 3228 3229 3230 3231 3233 3234 3235 3235 3236 3237 3238 3238 3239 3239 3240 3241 3242 3243 3243 3244 3244 3245 3245 3246 3247 3247 3248 3248 3249 3250 3250
3169 3171 3173 3176 3178 3179 3181 3183 3186 3188 3191 3193 3194 3196 3200 3203 3205 3206 3208 3210 3212 3213 3215 3216 3217 3218 3219 3221 3222 3223 3225 3226 3227 3228 3229 3230 3231 3232 3233 3234 3235 3235 3236 3237 3238 3238 3239 3240 3241 3242 3242 3243 3244 3244 3245 3245 3246 3246 3247 3248 3248 3249 3249
3168 3170 3172 3174 3176 3178 3179 3182 3184 3186 3188 3191 3193 3195 3198 3202 3204 3205 3207 3209 3210 3212 3213 3214 3215 3217 3218 3220 3221 3222 3223 3224 3225 3226 3227 3228 3230 3231 3232 3233 3233 3234 3235 3236 3237 3237 3238 3238 3239 3240 3241 3242 3243 3243 3244 3244 3245 3245 3246 3247 3247 3248 3248
3167 3169 3171 3173 3174 3176 3178 3180 3182 3184 3187 3189 3191 3194 3196 3200 3203 3204 3206 3207 3209 3210 3211 3212 3214 3215 3217 3219 3220 3220 3222 3223 3224 3225 3225 3227 3228 3229 3230 3231 3232 3233 3234 3234 3235 3236 3237 3237 3238 3239 3240 3240 3241 3242 3243 3243 3244 3244 3245 3246 3246 3247 3248
3167 3169 3170 3172 3173 3175 3177 3178 3180 3183 3186 3188 3190 3192 3195 3198 3201 3203 3204 3205 3207 3208 3209 3211 3212 3213 3215 3216 3217 3218 3220 3221 3222 3223 3224 3225 3226 3227 3228 3229 3230 3231 3232 3233 3234 3235 3235 3236 3236 3237 3238 3239 3240 3241 3241 3242 3243 3243 3244 3245 3246 3246 3247
3166 3168 3169 3171 3172 3174 3175 3177 3179 3182 3184 3186 3188 3191 3193 3195 3197 3199 3201 3202 3204 3205 3207 3209 3210 3212 3213 3214 3215 3216 3218 3218 3219 3220 3221 3223 3224 3225 3226 3227 3228 3229 3230 3231 3232 3233 3234 3235 3235 3236 3236 3237 3238 3239 3240 3240 3241 3242 3242 3243 3244 3245 3245
3166 3167 3168 3169 3171 3172 3174 3177 3179 3181 3183 3185 3187 3189 3191 3193 3195 3196 3198 3200 3202 3203 3205 3206 3208 3209 3210 3212 3213 3214 3214 3215 3216 3217 3219 3220 3221 3222 3224 3225 3226 3227 3228 3229 3230 3231 3231 3232 3233 3234 3235 3235 3237 3238 3238 3239 3240 3240 3241 3242 3243 3243 3244
3166 3166 3167 3169 3170 3172 3174 3176 3178 3180 3181 3183 3185 3187 3189 3191 3193 3195 3197 3198 3199 3201 3202 3203 3205 3207 3208 3209 3209 3210 3211 3211 3211 3213 3215 3217 3218 3219 3221 3222 3223 3224 3225 3226 3227 3228 3229 3230 3231 3232 3233 3234 3235 3236 3237 3237 3237 3238 3239 3240 3241 3242 3243
3164 3165 3167 3169 3170 3171 3173 3175 3176 3178 3179 3180 3182 3184 3187 3189 3191 3193 3195 3196 3196 3198 3199 3200 3202 3203 3204 3205 3206 3207 3208 3207 3207 3209 3211 3213 3215 3216 3218 3219 3220 3221 3222 3224 3225 3226 3227 3228 3229 3230 3231 3232 3233 3234 3234 3234 3234 3235 3237 3239 3239 3240 3241
3163 3165 3167 3168 3169 3170 3172 3173 3175 3176 3178 3179 3180 3182 3184 3186 3189 3191 3192 3192 3193 3195 3196 3197 3198 3199 3200 3202 3204 3204 3205 3205 3205 3207 3208 3210 3211 3213 3214 3215 3217 3218 3219 3221 3222 3222 3224 3225 3227 3228 3229 3230 3231 3232 3231 3231 3232 3233 3235 3236 3238 3238 3239
3162 3164 3166 3167 3169 3170 3171 3173 3174 3176 3177 3178 3179 3180 3182 3184 3187 3189 3189 3189 3191 3192 3193 3195 3196 3197 3198 3200 3202 3202 3203 3203 3203 3204 3206 3207 3208 3209 3211 3212 3213 3215 3216 3217 3218 3219 3221 3222 3224 3225 3226 3227 3229 3229 3227 3228 3230 3231 3233 3234 3236 3236 3237
3161 3163 3164 3166 3168 3169 3170 3172 3173 3174 3176 3177 3178 3179 3181 3183 3185 3186 3187 3187 3188 3190 3191 3192 3193 3194 3195 3197 3199 3199 3199 3200 3201 3201 3202 3202 3203 3205 3207 3208 3210 3211 3212 3214 3215 3216 3218 3219 3221 3222 3222 3223 3224 3222 3221 3224 3227 3228 3230 3232 3233 3234 3235
3160 3162 3163 3165 3167 3168 3169 3171 3172 3173 3174 3175 3176 3177 3178 3180 3182 3184 3185 3185 3186 3187 3189 3190 3191 3191 3192 3195 3196 3195 3196 3197 3198 3198 3198 3198 3200 3202 3203 3204 3206 3207 3208 3210 3212 3213 3215 3215 3216 3217 3217 3219 3219 3218 3219 3222 3224 3225 3227 3229 3230 3232 3233
3159 3160 3162 3163 3164 3166 3168 3169 3170 3172 3173 3173 3174 3175 3177 3178 3179 3181 3182 3183 3184 3185 3186 3187 3188 3189 3190 3192 3193 3193 3194 3195 3195 3195 3195 3195 3196 3198 3199 3200 3202 3203 3204 3206 3208 3209 3210 3210 3210 3211 3213 3216 3218 3218 3220 3222 3222 3223 3225 3226 3227 3229 3230
3159 3159 3160 3162 3163 3165 3167 3168 3169 3170 3171 3172 3173 3174 3175 3176 3177 3178 3180 3181 3182 3183 3184 3185 3186 3187 3188 3189 3189 3190 3191 3192 3192 3191 3192 3194 3195 3195 3196 3197 3199 3200 3201 3203 3204 3205 3206 3206 3208 3209 3211 3213 3215 3216 3218 3220 3221 3222 3223 3223 3225 3226 3227
3158 3159 3161 3162 3163 3165 3166 3167 3169 3169 3170 3171 3172 3172 3173 3174 3176 3177 3178 3179 3180 3181 3182 3183 3183 3184 3186 3186 3187 3188 3189 3189 3189 3189 3189 3191 3193 3194 3194 3195 3196 3197 3198 3199 3200 3201 3202 3204 3205 3206 3207 3209 3211 3212 3215 3217 3219 3219 3220 3221 3222 3223 3224
3159 3160 3161 3162 3164 3165 3166 3167 3168 3169 3170 3170 3171 3171 3172 3173 3174 3175 3176 3178 3179 3179 3180 3181 3181 3182 3183 3184 3185 3186 3187 3187 3187 3187 3187 3188 3190 3191 3191 3192 3192 3193 3194 3195 3196 3197 3198 3199 3201 3202 3203 3205 3207 3209 3211 3213 3215 3216 3217 3218 3219 3220 3221
3158 3159 3160 3162 3163 3164 3165 3166 3167 3168 3169 3170 3170 3171 3171 3172 3173 3174 3175 3176 3177 3178 3179 3179 3180 3180 3181 3182 3183 3184 3185 3185 3186 3186 3186 3187 3188 3189 3189 3190 3190 3191 3192 3193 3193 3193 3193 3195 3197 3199 3200 3202 3204 3205 3207 3209 3211 3213 3214 3215 3216 3217 3217
3158 3159 3160 3162 3163 3164 3165 3166 3167 3167 3168 3169 3169 3170 3171 3171 3172 3173 3174 3175 3176 3177 3178 3178 3179 3179 3179 3180 3181 3182 3183 3183 3184 3185 3185 3186 3186 3187 3187 3188 3189 3189 3190 3190 3190 3190 3191 3192 3194 3195 3196 3198 3200 3201 3203 3204 3206 3209 3211 3212 3214 3214 3214
3159 3160 3161 3162 3163 3164 3165 3166 3166 3167 3168 3168 3169 3170 3170 3171 3172 3173 3174 3174 3175 3176 3177 3177 3178 3178 3179 3179 3180 3181 3181 3182 3182 3183 3184 3184 3185 3185 3186 3186 3187 3187 3188 3188 3188 3188 3189 3191 3192 3192 3193 3195 3197 3198 3199 3200 3202 3204 3207 3209 3210 3211 3211
3160 3161 3161 3161 3162 3163 3164 3166 3167 3167 3168 3168 3169 3170 3171 3171 3172 3173 3173 3174 3175 3175 3176 3177 3177 3178 3178 3179 3179 3180 3180 3181 3181 3182 3182 3183 3183 3183 3184 3184 3185 3185 3185 3185 3185 3186 3188 3189 3190 3191 3192 3193 3194 3195 3195 3196 3197 3200 3203 3205 3206 3207 3207
3160 3161 3161 3162 3162 3164 3165 3166 3167 3168 3168 3169 3170 3170 3171 3171 3172 3172 3173 3174 3175 3175 3176 3176 3177 3177 3178 3178 3179 3179 3180 3180 3180 3181 3181 3181 3181 3181 3182 3182 3182 3183 3184 3184 3184 3184 3186 3187 3187 3189 3190 3191 3191 3192 3192 3192 3195 3197 3199 3200 3201 3202 3203
3160 3161 3161 3161 3162 3164 3165 3165 3166 3168 3169 3169 3169 3170 3171 3171 3172 3172 3173 3173 3174 3175 3175 3176 3176 3177 3177 3178 3178 3179 3179 3180 3180 3180 3180 3180 3180 3180 3180 3180 3181 3182 3182 3182 3182 3183 3184 3185 3186 3187 3187 3188 3188 3189 3189 3191 3193 3195 3195 3195 3197 3198 3199
3159 3160 3160 3161 3162 3163 3164 3164 3166 3168 3168 3169 3169 3169 3170 3170 3171 3172 3172 3173 3173 3174 3174 3175 3176 3176 3177 3177 3178 3178 3178 3179 3179 3179 3179 3179 3180 3180 3179 3180 3180 3180 3181 3181 3181 3182 3182 3183 3184 3184 3185 3185 3186 3187 3188 3189 3191 3192 3193 3193 3195 3196 3197
3158 3158 3159 3160 3161 3162 3163 3164 3165 3166 3167 3168 3168 3168 3169 3169 3170 3170 3171 3171 3172 3173 3173 3174 3175 3175 3176 3177 3177 3177 3178 3178 3178 3178 3178 3179 3179 3179 3179 3179 3179 3180 3180 3180 3181 3181 3181 3182 3182 3183 3184 3185 3185 3185 3186 3187 3189 3190 3191 3192 3192 3193 3194
3158 3159 3159 3160 3161 3161 3162 3163 3164 3165 3165 3166 3166 3167 3168 3168 3169 3169 3170 3170 3170 3171 3172 3173 3173 3174 3174 3175 3175 3176 3176 3177 3177 3177 3177 3178 3178 3179 3179 3179 3179 3179 3179 3180 3180 3180 3181 3181 3182 3182 3183 3184 3184 3184 3185 3186 3187 3188 3189 3189 3190 3190 3191
3158 3159 3159 3159 3159 3160 3161 3161 3162 3163 3163 3164 3165 3166 3166 3167 3167 3168 3168 3168 3169 3169 3170 3171 3172 3172 3173 3173 3173 3174 3174 3175 3175 3176 3176 3176 3177 3177 3178 3178 3178 3178 3178 3179 3179 3180 3180 3181 3181 3182 3183 3184 3184 3184 3185 3185 3186 3186 3187 3187 3188 3188 3189
3156 3157 3157 3157 3158 3159 3159 3160 3160 3161 3161 3162 3163 3164 3164 3165 3165 3166 3166 3166 3167 3167 3168 3168 3169 3170 3171 3171 3171 3172 3172 3172 3173 3173 3174 3174 3175 3175 3176 3176 3176 3177 3177 3177 3178 3178 3179 3180 3180 3181 3182 3183 3183 3184 3184 3185 3185 3185 3186 3186 3187 3187 3187
3154 3155 3155 3155 3156 3157 3157 3158 3158 3159 3159 3160 3161 3161 3162 3162 3163 3164 3164 3165 3165 3165 3166 3166 3167 3167 3168 3169 3169 3169 3170 3170 3170 3170 3171 3171 3172 3172 3173 3174 3174 3175 3175 3176 3176 3176 3177 3177 3178 3179 3179 3180 3181 3182 3182 3183 3183 3184 3184 3184 3185 3185 3186